Weather History for Jaffrey, NH

Change the Weather History Date:

Monday, April 8, 2013

  Actual Average Record
Temperature  
Mean Temperature 48 °F -  
Max Temperature 61 °F 48 °F 68 °F (1999)
Min Temperature 35 °F 27 °F 21 °F (2007)
Degree Days  
Heating Degree Days 17    
Moisture  
Dew Point 35 °F    
Average Humidity 68    
Maximum Humidity 96    
Minimum Humidity 27    
Precipitation  
Precipitation 0.00 in - - ()
Sea Level Pressure  
Sea Level Pressure 30.03 in    
Wind  
Wind Speed 5 mph (SW)    
Max Wind Speed 9 mph    
Max Gust Speed 17 mph    
Visibility 10 miles    
Events      
Averages and records for this station are not official NWS values.
T = Trace of Precipitation, MM = Missing Value Source: NWS Daily Summary

Daily Weather History Graph

Daily Weather History Graph

Search for Another Location

Airport:

Trip Planner

Search our weather history database for the weather conditions in past years. The results will help you decide how hot, cold, wet, or windy it might be!

Date:

Astronomy

Apr. 08, 2013 Rise Set
Actual Time 6:17 AM EDT 7:22 PM EDT
Civil Twilight 5:48 AM EDT 7:51 PM EDT
Nautical Twilight 5:14 AM EDT 8:26 PM EDT
Astronomical Twilight 4:38 AM EDT 9:02 PM EDT
Moon 5:08 AM EDT (4/8) 5:52 PM EDT (4/8)
Length of Visible Light 14h 02m
Length of Day
13h 04m
Waning Crescent, 3% of the Moon is Illuminated
Apr 8
Waning Crescent
Apr 10
New
Apr 18
First Quarter
Apr 25
Full
May 2
Last Quarter

Hourly Weather History & Observations

Time (EDT) Temp. Windchill Dew Point Humidity Pressure Visibility Wind Dir Wind Speed Gust Speed Precip Events Conditions
12:52 AM 43.0 °F 37.7 °F 39.0 °F 86% 29.99 in 10.0 mi SSW 9.2 mph - N/A   Scattered Clouds
12:59 AM 42.8 °F 38.6 °F 39.2 °F 87% 29.96 in 10.0 mi Variable 6.9 mph 16.1 mph N/A   Mostly Cloudy
1:26 AM 42.8 °F 38.0 °F 39.2 °F 87% 29.96 in 10.0 mi SW 8.1 mph - N/A   Overcast
1:52 AM 43.0 °F 38.2 °F 39.0 °F 86% 29.98 in 10.0 mi WSW 8.1 mph - N/A   Overcast
2:52 AM 42.1 °F 37.7 °F 39.0 °F 89% 29.97 in 10.0 mi Variable 6.9 mph - N/A   Overcast
3:24 AM 42.8 °F 40.1 °F 39.2 °F 87% 29.94 in 10.0 mi SSW 4.6 mph - N/A   Overcast
3:52 AM 42.1 °F - 39.9 °F 92% 29.98 in 10.0 mi Calm Calm - N/A   Overcast
4:52 AM 39.9 °F - 37.9 °F 93% 29.99 in 9.0 mi Calm Calm - N/A   Mostly Cloudy
5:10 AM 39.2 °F 37.0 °F 37.4 °F 93% 29.95 in 8.0 mi South 3.5 mph - N/A   Partly Cloudy
5:52 AM 35.1 °F 30.1 °F 34.0 °F 96% 30.00 in 5.0 mi South 5.8 mph - N/A   Clear
6:52 AM 35.1 °F 32.2 °F 34.0 °F 96% 30.02 in 5.0 mi SSE 3.5 mph - N/A   Clear
7:52 AM 45.0 °F 41.8 °F 34.0 °F 65% 30.04 in 10.0 mi West 5.8 mph 16.1 mph N/A   Clear
8:52 AM 45.0 °F 41.8 °F 34.0 °F 65% 30.04 in 10.0 mi Variable 5.8 mph - N/A   Clear
9:52 AM 45.0 °F 41.2 °F 33.1 °F 63% 30.06 in 10.0 mi Variable 6.9 mph - N/A   Clear
10:52 AM 46.9 °F - 32.0 °F 56% 30.08 in 10.0 mi North 8.1 mph 17.3 mph N/A   Clear
11:52 AM 50.0 °F - 32.0 °F 50% 30.09 in 10.0 mi Variable 6.9 mph - N/A   Clear
12:52 PM 53.1 °F - 30.9 °F 43% 30.08 in 10.0 mi Variable 3.5 mph - N/A   Clear
1:52 PM 55.9 °F - 30.0 °F 37% 30.08 in 10.0 mi Calm Calm - N/A   Clear
2:52 PM 57.9 °F - 30.0 °F 35% 30.07 in 10.0 mi Variable 4.6 mph - N/A   Clear
3:52 PM 60.1 °F - 30.0 °F 32% 30.05 in 10.0 mi Variable 4.6 mph - N/A   Clear
4:52 PM 61.0 °F - 27.0 °F 27% 30.05 in 10.0 mi WNW 5.8 mph - N/A   Clear
5:52 PM 61.0 °F - 28.0 °F 29% 30.05 in 10.0 mi Calm Calm - N/A   Clear
6:52 PM 51.1 °F - 34.0 °F 52% 30.08 in 10.0 mi Calm Calm - N/A   Clear
7:52 PM 45.0 °F - 36.0 °F 71% 30.08 in 10.0 mi Calm Calm - N/A   Clear
8:52 PM 42.1 °F - 35.1 °F 76% 30.11 in 10.0 mi Calm Calm - N/A   Clear
9:52 PM 42.1 °F - 35.1 °F 76% 30.10 in 10.0 mi Calm Calm - N/A   Clear
10:52 PM 42.1 °F - 34.0 °F 73% 30.09 in 10.0 mi Calm Calm - N/A   Mostly Cloudy
11:52 PM 42.1 °F - 35.1 °F 76% 30.08 in 10.0 mi Calm Calm - N/A   Overcast